When you browse on this site, cookies collect data to enhance your experience and personalize the content and advertising you see.
Visit our Privacy Policy to learn more. By continuing to use the site, you agree to this use of cookies and data.
  • In Spain
  • List of Countries
  • For 7 days
  • Water Temperature
  • Weather Map
  • Weather Widgets
  • user-avatar
    Login

    Hourly Weather Gdansk

    Today, 4 June, Thursday

    Time Temperature Precipitation Wind Pressure Humidity
    00:00 +9°C° 0 mm 1 mps 749 mmHg 92%
    01:00 +9°C° 0 mm 1 mps 749 mmHg 93%
    02:00 +9°C° 0 mm 1 mps 748 mmHg 93%
    03:00 +8°C° 0 mm 1 mps 748 mmHg 93%
    04:00 +8°C° 0 mm 1 mps 748 mmHg 93%
    05:00 +10°C° 0 mm 1 mps 748 mmHg 87%
    06:00 +12°C° 0 mm 1 mps 747 mmHg 81%
    07:00 +14°C° 0 mm 1 mps 747 mmHg 75%
    08:00 +15°C° 0 mm 2 mps 747 mmHg 71%
    09:00 +16°C° 0 mm 2 mps 747 mmHg 66%
    10:00 +17°C° 0 mm 3 mps 747 mmHg 61%
    11:00 +17°C° 0 mm 3 mps 747 mmHg 61%
    12:00 +18°C° 0 mm 3 mps 746 mmHg 60%
    13:00 +18°C° 0 mm 3 mps 746 mmHg 60%
    14:00 +18°C° 0 mm 4 mps 746 mmHg 63%
    15:00 +18°C° 0 mm 4 mps 745 mmHg 66%
    16:00 +17°C° 0 mm 4 mps 745 mmHg 70%
    17:00 +15°C° 0 mm 4 mps 744 mmHg 74%
    18:00 +15°C° 0 mm 4 mps 744 mmHg 78%
    19:00 +14°C° 0 mm 4 mps 744 mmHg 82%
    20:00 +13°C° 0 mm 4 mps 744 mmHg 86%
    21:00 +12°C° 0 mm 5 mps 744 mmHg 89%
    22:00 +10°C° 0 mm 5 mps 743 mmHg 92%
    23:00 +11°C° 0 mm 4 mps 743 mmHg 92%

    Tomorrow, 5 June, Friday

    Time Temperature Precipitation Wind Pressure Humidity
    00:00 +10°C° 0 mm 4 mps 743 mmHg 91%
    01:00 +10°C° 0 mm 4 mps 743 mmHg 91%
    02:00 +10°C° 0 mm 4 mps 742 mmHg 89%
    03:00 +9°C° 0 mm 5 mps 742 mmHg 87%
    04:00 +9°C° 0 mm 5 mps 741 mmHg 86%
    05:00 +10°C° 0 mm 5 mps 741 mmHg 84%
    06:00 +12°C° 0 mm 5 mps 741 mmHg 82%
    07:00 +13°C° 0 mm 5 mps 741 mmHg 81%
    08:00 +13°C° 0.6 mm 4 mps 741 mmHg 83%
    09:00 +13°C° 0.6 mm 4 mps 741 mmHg 85%
    10:00 +13°C° 0.6 mm 3 mps 741 mmHg 88%
    11:00 +13°C° 1.7 mm 3 mps 741 mmHg 90%
    12:00 +13°C° 1.7 mm 4 mps 741 mmHg 93%
    13:00 +13°C° 1.7 mm 4 mps 741 mmHg 95%
    14:00 +13°C° 1.3 mm 3 mps 741 mmHg 95%
    15:00 +13°C° 1.3 mm 3 mps 741 mmHg 95%
    16:00 +14°C° 1.3 mm 2 mps 742 mmHg 95%
    17:00 +14°C° 0.1 mm 2 mps 742 mmHg 94%
    18:00 +14°C° 0.1 mm 1 mps 742 mmHg 93%
    19:00 +14°C° 0.1 mm 1 mps 742 mmHg 92%
    20:00 +14°C° 0.1 mm 2 mps 742 mmHg 93%
    21:00 +13°C° 0.1 mm 2 mps 742 mmHg 94%
    22:00 +11°C° 0.1 mm 3 mps 743 mmHg 95%
    23:00 +11°C° 0 mm 4 mps 743 mmHg 95%

    Day after tomorrow, 6 June, Saturday

    Time Temperature Precipitation Wind Pressure Humidity
    00:00 +10°C° 0 mm 5 mps 743 mmHg 95%
    01:00 +11°C° 0 mm 6 mps 742 mmHg 94%
    02:00 +10°C° 0.1 mm 6 mps 742 mmHg 94%
    03:00 +10°C° 0.1 mm 6 mps 742 mmHg 94%
    04:00 +10°C° 0.1 mm 6 mps 742 mmHg 94%
    05:00 +11°C° 0.1 mm 7 mps 743 mmHg 90%
    06:00 +11°C° 0.1 mm 7 mps 743 mmHg 86%
    07:00 +11°C° 0.1 mm 8 mps 744 mmHg 82%
    08:00 +12°C° 0.1 mm 8 mps 744 mmHg 75%
    09:00 +13°C° 0.1 mm 8 mps 745 mmHg 68%
    10:00 +15°C° 0.1 mm 8 mps 746 mmHg 62%
    11:00 +16°C° 0.1 mm 8 mps 747 mmHg 58%
    12:00 +17°C° 0.1 mm 8 mps 747 mmHg 55%
    13:00 +17°C° 0.1 mm 8 mps 747 mmHg 51%
    14:00 +17°C° 0 mm 7 mps 748 mmHg 52%
    15:00 +17°C° 0 mm 7 mps 748 mmHg 53%
    16:00 +17°C° 0 mm 6 mps 748 mmHg 54%
    17:00 +16°C° 0.1 mm 5 mps 748 mmHg 62%
    18:00 +15°C° 0.1 mm 4 mps 748 mmHg 69%
    19:00 +14°C° 0.1 mm 4 mps 748 mmHg 77%
    20:00 +13°C° 0 mm 4 mps 749 mmHg 81%
    21:00 +12°C° 0 mm 4 mps 749 mmHg 84%
    22:00 +11°C° 0 mm 4 mps 749 mmHg 88%
    23:00 +11°C° 0 mm 4 mps 750 mmHg 90%

    7 June, Sunday

    Time Temperature Precipitation Wind Pressure Humidity
    00:00 +10°C° 0 mm 5 mps 750 mmHg 91%
    01:00 +12°C° 0 mm 5 mps 750 mmHg 93%
    02:00 +12°C° 0.1 mm 5 mps 750 mmHg 93%
    03:00 +12°C° 0.1 mm 5 mps 750 mmHg 94%
    04:00 +12°C° 0.1 mm 5 mps 751 mmHg 94%
    05:00 +13°C° 0.6 mm 5 mps 751 mmHg 93%
    06:00 +13°C° 0.6 mm 5 mps 751 mmHg 93%
    07:00 +13°C° 0.6 mm 5 mps 751 mmHg 92%
    08:00 +13°C° 0.5 mm 4 mps 751 mmHg 93%
    09:00 +13°C° 0.5 mm 4 mps 752 mmHg 93%
    10:00 +13°C° 0.5 mm 4 mps 752 mmHg 93%
    11:00 +14°C° 0.1 mm 3 mps 752 mmHg 90%
    12:00 +16°C° 0.1 mm 3 mps 752 mmHg 87%
    13:00 +16°C° 0.1 mm 3 mps 752 mmHg 84%
    14:00 +18°C° 0.1 mm 3 mps 752 mmHg 77%
    15:00 +19°C° 0.1 mm 3 mps 753 mmHg 70%
    16:00 +20°C° 0.1 mm 3 mps 753 mmHg 63%
    17:00 +19°C° 0 mm 3 mps 753 mmHg 68%
    18:00 +18°C° 0 mm 3 mps 753 mmHg 73%
    19:00 +17°C° 0 mm 2 mps 753 mmHg 78%
    20:00 +15°C° 0 mm 2 mps 754 mmHg 82%
    21:00 +14°C° 0 mm 2 mps 754 mmHg 85%
    22:00 +13°C° 0 mm 2 mps 755 mmHg 88%
    23:00 +12°C° 0 mm 2 mps 755 mmHg 89%

    8 June, Monday

    Time Temperature Precipitation Wind Pressure Humidity
    00:00 +12°C° 0 mm 2 mps 755 mmHg 90%
    01:00 +12°C° 0 mm 1 mps 755 mmHg 91%
    02:00 +12°C° 0 mm 1 mps 755 mmHg 92%
    03:00 +11°C° 0 mm 1 mps 755 mmHg 92%
    04:00 +11°C° 0 mm 1 mps 755 mmHg 92%
    05:00 +13°C° 0 mm 1 mps 756 mmHg 88%
    06:00 +14°C° 0 mm 1 mps 756 mmHg 84%
    07:00 +16°C° 0 mm 2 mps 756 mmHg 80%
    08:00 +17°C° 0 mm 2 mps 756 mmHg 76%
    09:00 +18°C° 0 mm 2 mps 756 mmHg 72%
    10:00 +18°C° 0 mm 2 mps 756 mmHg 68%
    11:00 +19°C° 0 mm 3 mps 756 mmHg 66%
    12:00 +19°C° 0 mm 3 mps 756 mmHg 64%
    13:00 +19°C° 0 mm 4 mps 756 mmHg 62%
    14:00 +19°C° 0 mm 4 mps 756 mmHg 63%
    15:00 +17°C° 0 mm 5 mps 756 mmHg 64%
    16:00 +17°C° 0 mm 5 mps 756 mmHg 65%
    17:00 +16°C° 0 mm 5 mps 756 mmHg 69%
    18:00 +15°C° 0 mm 4 mps 756 mmHg 73%
    19:00 +14°C° 0 mm 3 mps 756 mmHg 77%
    20:00 +13°C° 0 mm 3 mps 756 mmHg 77%
    21:00 +13°C° 0 mm 4 mps 756 mmHg 77%
    22:00 +12°C° 0 mm 4 mps 757 mmHg 78%
    23:00 +12°C° 0 mm 4 mps 757 mmHg 78%

    9 June, Tuesday

    Time Temperature Precipitation Wind Pressure Humidity
    00:00 +12°C° 0 mm 4 mps 756 mmHg 78%
    01:00 +12°C° 0 mm 4 mps 756 mmHg 78%
    02:00 +12°C° 0 mm 4 mps 756 mmHg 80%
    03:00 +12°C° 0 mm 4 mps 756 mmHg 82%
    04:00 +12°C° 0 mm 4 mps 756 mmHg 83%
    05:00 +13°C° 0 mm 5 mps 756 mmHg 80%
    06:00 +14°C° 0 mm 5 mps 756 mmHg 77%
    07:00 +16°C° 0 mm 5 mps 757 mmHg 75%
    08:00 +16°C° 0 mm 5 mps 757 mmHg 72%
    09:00 +17°C° 0 mm 5 mps 757 mmHg 69%
    10:00 +17°C° 0 mm 6 mps 757 mmHg 67%
    11:00 +19°C° 0 mm 6 mps 757 mmHg 69%
    12:00 +19°C° 0 mm 6 mps 757 mmHg 72%
    13:00 +19°C° 0 mm 6 mps 757 mmHg 74%
    14:00 +19°C° 0 mm 6 mps 757 mmHg 77%
    15:00 +17°C° 0 mm 6 mps 757 mmHg 79%
    16:00 +17°C° 0 mm 6 mps 756 mmHg 81%
    17:00 +16°C° 0 mm 5 mps 756 mmHg 85%
    18:00 +15°C° 0 mm 5 mps 756 mmHg 88%
    19:00 +14°C° 0 mm 4 mps 757 mmHg 91%
    20:00 +14°C° 0 mm 4 mps 757 mmHg 93%
    21:00 +13°C° 0 mm 4 mps 757 mmHg 94%
    22:00 +13°C° 0 mm 4 mps 757 mmHg 96%
    23:00 +13°C° 0 mm 4 mps 757 mmHg 97%
    Show more